This is the latest recevied weather packets stored in our database for station/object VE3EP-1. If no packets are shown the sender has not sent any weather packets the latest 10 day(s).
| Time | Temp. | Humidity | Pressure | Rain* | Wind** | Luminosity | Snow |
|---|---|---|---|---|---|---|---|
| 1788578937 | 18.33° C | 81% | 1016.1 hPa | 0 mm | - | - | - |
| 1788578337 | 17.78° C | 82% | 1016.1 hPa | 0 mm | - | - | - |
| 1788577737 | 17.78° C | 83% | 1016.3 hPa | 0 mm | - | - | - |
| 1788577137 | 17.78° C | 83% | 1016.1 hPa | 0 mm | - | - | - |
| 1788576537 | 18.33° C | 81% | 1016.2 hPa | 0 mm | - | - | - |
| 1788574738 | 19.44° C | 77% | 1016.4 hPa | 0 mm | - | - | - |
| 1788574138 | 20° C | 76% | 1016.3 hPa | 0 mm | - | - | - |
| 1788572937 | 20° C | 79% | 1016.2 hPa | 0 mm | - | - | - |
| 1788572337 | 19.44° C | 85% | 1016.3 hPa | 0 mm | - | - | - |
| 1788571737 | 18.89° C | 86% | 1016.3 hPa | 0 mm | - | - | - |
| 1788571137 | 18.89° C | 88% | 1016.3 hPa | 0 mm | - | - | - |
| 1788570537 | 18.89° C | 87% | 1016.1 hPa | 0 mm | - | - | - |
| 1788569937 | 18.89° C | 86% | 1016.2 hPa | 0 mm | - | - | - |
| 1788569337 | 18.89° C | 86% | 1016.1 hPa | 0 mm | - | - | - |
| 1788568737 | 19.44° C | 86% | 1015.8 hPa | 0 mm | - | - | - |
| 1788568138 | 20° C | 84% | 1015.7 hPa | 0 mm | - | - | - |
| 1788567537 | 20° C | 80% | 1015.6 hPa | 0 mm | - | - | - |
| 1788566938 | 20.56° C | 78% | 1015.8 hPa | 0 mm | - | - | - |
| 1788566337 | 21.11° C | 75% | 1015.5 hPa | 0 mm | - | - | - |
| 1788565737 | 21.11° C | 74% | 1015.4 hPa | 0 mm | - | - | - |
| 1788564537 | 22.22° C | 72% | 1015.3 hPa | 0 mm | - | - | - |
| 1788563938 | 22.22° C | 73% | 1015.3 hPa | 0 mm | - | - | - |
| 1788563337 | 22.22° C | 81% | 1015.3 hPa | 0 mm | - | - | - |
| 1788562137 | 22.78° C | 80% | 1014.7 hPa | 0 mm | - | - | - |
| 1788561537 | 22.78° C | 80% | 1014.7 hPa | 0 mm | - | - | - |
* Rain latest hour (hover to see other rain measurements)
** Current wind speed in m/s (hover to see current wind gust speed)